SL-8 R/B

Satellite information

Favourite Embed

Satellite Type and Status

ROCKET BODYIN ORBIT

Key statistics

Satellite SL-8 R/B at a glance.

Uptime

17624

Days in orbit

Revolutions

≈ 13.8

Per day

Orbit

LEO

Low Earth Orbit

Inclination

83.0

Latest

Satellite identification and parameters

Extended collection of information and parameters for SL-8 R/B.

Object identification

Identified? True

Debris? False

Object name: SL-8 R/B

International designator: 1977-087B

Object number (NORAD): 10355

Object ID (CCSDS): 10355

Country: COMMONWEALTH OF INDEPENDENT STATES (CIS)

Current information (Y/N): Y

RCS size: LARGE

Orbital parameters

Period: 104.647 minutes

Inclination: 82.9708 deg

SMA: 7356.055 km

Apoapsis: 1003.073 km

Periapsis: 952.766 km

RAAN: 276.4205 deg

Eccentricy: 0.00341945

Argument of periapsis: 23.4655 deg

Mean anomaly: 149.3802 deg

Mean motion: 13.76053585 rev/day

Mean motion (dot): 0.00000094 rev/day2

B* drag term: 0.000080996736 1/REarth

Two-line elements (TLE)

Creation date: Dec. 14, 2025, 3:07 a.m.

Reference frame: TEME

Reference center: EARTH

Epoch: Dec. 13, 2025, 2:23 p.m. UTC

TLE line 0: 0 SL-8 R/B

TLE line 1: 1 10355U 77087B 25347.59933256 .00000094 00000-0 80997-4 0 9996

TLE line 2: 2 10355 82.9708 276.4205 0034195 23.4655 149.3802 13.76053585421864

Live tracking on map

Real-time ground track for satellite SL-8 R/B.

In-orbit conjunctions

A list of the most updated potential collisions computed for object SL-8 R/B.

Target Orbit TCA Probability of collision Miss distance Type
THORAD AGENA D DEB SSO 2024-10-13 13:17:19 0.0002202575 66.0 (m) DEBRIS

Associated space launch

The soviet Zenit-2M (Gektor, 11F690) was an improved version of the Zenit-2 area surveillance reconnaissance satellite. It was part of the Vostok-based Zenit-family.

SL-8 R/B was lifted into orbit during the mission ‘Soyuz U | Zenit-2M 81’, on board a Soyuz U space rocket.

The launch took place on Sept. 13, 1977, 3:10 p.m. from 43/3 (43L).

For more information about the launch, click the button.

Launch to space Soyuz U | Zenit-2M 81
Soyuz U | Zenit-2M 81

Agency: N/A

Status: Launch Successful

Launch date: Sept. 13, 1977, 3:10 p.m. UTC

Rocket: Soyuz U

Launch pad: 43/3 (43L)

Location: Plesetsk Cosmodrome, Russian Federation

...

Latest news about this satellite

There are no fresh news available about this satellite. Check back as we update our databases every day.


Newsletter sign-up

Weekly statistics, charts and insights to help you stay on top of the space industry.